Date String (YYYY-MM-DD hh:mm:ss) UTC,Instrument flags,Ambient pressure (hPa),Sample flow (lpm),Bypass flow (lpm),Sample temperature (°C),Ambient temperature (°C),ASC tube jacket temperature (°C),LED temperature (°C),Box temperature (°C),Sample RH (%),Span deviation,Mass concentration (μg/m³),Mass concentration (μg/m³),Mass concentration (μg/m³)
DateTimeUTC,F1_M11,P_M11,Q1_M11,Q2_M11,T1_M11,T2_M11,T3_M11,T4_M11,T5_M11,U1_M11,ZSPAN_M11,X2_M11,X0_M11,X1_M11
2022-01-20 09:00:00,,0832.4,4.99,0.00,22.0,22.1,00.0,31.1,23.7,10.5,0000.9,0008.67,0010.58,0008.31
2022-01-20 09:01:00,,0832.4,5.01,0.00,22.1,22.9,00.0,31.1,24.0,10.4,0000.6,0008.73,0010.68,0008.34
2022-01-20 09:02:00,,0832.3,5.01,0.00,22.2,22.9,00.0,31.1,24.1,10.4,0000.6,0008.74,0010.64,0008.36
2022-01-20 09:03:00,,0832.4,5.00,0.00,22.2,22.5,00.0,31.1,24.1,10.4,0000.7,0008.72,0010.65,0008.35
2022-01-20 09:04:00,,0832.4,4.99,0.00,22.2,22.3,00.0,31.1,23.9,10.4,0000.9,0008.73,0010.92,0008.38
2022-01-20 09:05:00,,0832.4,5.00,0.00,22.2,22.0,00.0,31.1,23.9,10.4,0001.1,0008.79,0011.00,0008.43
2022-01-20 09:06:00,,0832.4,5.00,0.00,22.1,21.9,00.0,31.1,23.8,10.4,0000.9,0008.85,0011.09,0008.47
2022-01-20 09:07:00,,0832.4,5.01,0.00,22.1,21.8,00.0,31.1,23.8,10.4,0001.5,0008.93,0010.81,0008.51
2022-01-20 09:08:00,,0832.4,4.99,0.00,22.1,21.7,00.0,31.1,23.8,10.4,0001.5,0008.92,0010.74,0008.52
2022-01-20 09:09:00,,0832.4,5.00,0.00,22.1,21.6,00.0,31.1,23.8,10.4,0001.6,0008.91,0010.70,0008.53
2022-01-20 09:10:00,,0832.4,5.01,0.00,22.1,21.6,00.0,31.1,23.8,10.4,0001.1,0008.92,0010.72,0008.55
2022-01-20 09:11:00,,0832.4,5.00,0.00,22.0,21.5,00.0,31.1,23.8,10.4,0000.8,0008.94,0010.75,0008.57
2022-01-20 09:12:00,,0832.4,4.99,0.00,22.0,21.5,00.0,31.1,23.7,10.4,0001.2,0008.92,0010.75,0008.59
2022-01-20 09:13:00,,0832.4,5.01,0.00,22.0,21.5,00.0,31.0,23.7,10.5,0001.1,0008.96,0010.84,0008.61
2022-01-20 09:14:00,,0832.4,4.99,0.00,22.0,21.4,00.0,31.0,23.7,10.5,0000.8,0008.98,0010.85,0008.62
2022-01-20 09:15:00,,0832.4,5.02,0.00,22.0,21.4,00.0,31.0,23.7,10.5,0000.8,0009.00,0010.70,0008.63
2022-01-20 09:16:00,,0832.3,4.99,0.00,22.0,21.4,00.0,31.0,23.7,10.5,0001.0,0009.00,0010.75,0008.62
2022-01-20 09:17:00,,0832.3,5.00,0.00,22.0,21.4,00.0,31.0,23.7,10.5,0001.1,0008.98,0010.72,0008.61
2022-01-20 09:18:00,,0832.3,5.00,0.00,22.0,21.5,00.0,31.0,23.7,10.5,0000.6,0008.94,0010.62,0008.62
2022-01-20 09:19:00,,0832.4,5.00,0.00,22.1,22.1,00.0,31.0,23.9,10.5,0000.8,0008.94,0010.62,0008.62
2022-01-20 09:20:00,,0832.4,4.99,0.00,22.2,22.9,00.0,31.1,24.1,10.4,0000.8,0008.98,0010.69,0008.63
2022-01-20 09:21:00,,0832.4,5.00,0.00,22.3,23.2,00.0,31.1,24.3,10.4,0000.9,0008.99,0010.66,0008.65
2022-01-20 09:22:00,,0832.3,5.01,0.00,22.4,22.9,00.0,31.1,24.3,10.3,0001.0,0009.00,0010.63,0008.66
2022-01-20 09:23:00,,0832.3,5.00,0.00,22.4,22.6,00.0,31.1,24.2,10.3,0000.9,0009.00,0010.60,0008.65
2022-01-20 09:24:00,,0832.4,4.99,0.00,22.3,22.3,00.0,31.2,24.1,10.3,0000.6,0008.96,0010.53,0008.63
2022-01-20 09:25:00,,0832.4,4.99,0.00,22.3,22.1,00.0,31.2,24.0,10.4,0000.9,0008.96,0010.49,0008.63
2022-01-20 09:26:00,,0832.4,5.01,0.00,22.3,22.0,00.0,31.2,23.9,10.4,0000.8,0008.95,0010.39,0008.64
2022-01-20 09:27:00,,0832.4,5.00,0.00,22.2,21.8,00.0,31.2,23.8,10.4,0000.3,0008.96,0010.37,0008.65
2022-01-20 09:28:00,,0832.3,5.01,0.00,22.2,21.6,00.0,31.2,23.8,10.4,0000.1,0008.94,0010.33,0008.65
2022-01-20 09:29:00,,0832.4,4.98,0.00,22.1,21.5,00.0,31.1,23.7,10.4,0000.5,0008.92,0010.36,0008.62
2022-01-20 09:30:00,,0832.4,5.02,0.00,22.0,21.4,00.0,31.1,23.6,10.4,0000.7,0008.93,0010.39,0008.61
2022-01-20 09:31:00,,0832.4,4.99,0.00,22.0,21.3,00.0,31.1,23.6,10.5,0000.2,0008.91,0010.37,0008.61
2022-01-20 09:32:00,,0832.3,5.01,0.00,22.0,21.2,00.0,31.1,23.6,10.5,0000.3,0008.91,0010.40,0008.60
2022-01-20 09:33:00,,0832.4,4.99,0.00,21.9,21.2,00.0,31.1,23.5,10.5,0000.4,0008.91,0010.41,0008.59
2022-01-20 09:34:00,,0832.4,5.00,0.00,21.9,21.2,00.0,31.0,23.5,10.5,0000.1,0008.93,0010.41,0008.62
2022-01-20 09:35:00,,0832.4,5.01,0.00,21.9,21.2,00.0,31.0,23.5,10.5,-000.3,0008.95,0010.44,0008.63
2022-01-20 09:36:00,,0832.4,5.00,0.00,21.9,21.6,00.0,31.0,23.6,10.5,-000.7,0008.97,0010.49,0008.64
2022-01-20 09:37:00,,0832.4,5.00,0.00,22.1,22.4,00.0,31.0,23.9,10.4,-000.6,0008.95,0010.46,0008.62
2022-01-20 09:38:00,,0832.4,5.01,0.00,22.2,23.1,00.0,31.1,24.1,10.3,-000.6,0008.93,0010.43,0008.61
2022-01-20 09:39:00,,0832.4,4.99,0.00,22.3,23.1,00.0,31.1,24.3,10.3,-000.6,0008.95,0010.56,0008.60
2022-01-20 09:40:00,,0832.4,5.00,0.00,22.3,22.8,00.0,31.1,24.2,10.2,-000.6,0008.98,0010.91,0008.62
2022-01-20 09:41:00,,0832.4,5.00,0.00,22.3,22.6,00.0,31.2,24.2,10.2,-000.8,0009.00,0011.52,0008.65
2022-01-20 09:42:00,,0832.4,5.02,0.00,22.3,22.4,00.0,31.2,24.2,10.2,-000.4,0009.03,0011.56,0008.68
2022-01-20 09:43:00,,0832.4,5.00,0.00,22.3,22.2,00.0,31.2,24.1,10.2,-000.4,0009.05,0011.56,0008.71
2022-01-20 09:44:00,,0832.4,4.99,0.00,22.3,22.1,00.0,31.2,24.1,10.2,-000.5,0009.02,0011.50,0008.71
2022-01-20 09:45:00,,0832.4,5.01,0.00,22.3,22.0,00.0,31.2,24.0,10.2,-000.7,0008.99,0011.45,0008.68
2022-01-20 09:46:00,,0832.4,4.99,0.00,22.3,21.9,00.0,31.2,24.0,10.2,-000.4,0008.94,0011.40,0008.65
2022-01-20 09:47:00,,0832.4,5.00,0.00,22.2,21.8,00.0,31.2,23.9,10.2,0000.1,0008.91,0011.34,0008.63
2022-01-20 09:48:00,,0832.4,4.99,0.00,22.2,21.7,00.0,31.2,23.9,10.2,-000.4,0008.94,0011.43,0008.65
2022-01-20 09:49:00,,0832.3,5.00,0.00,22.2,21.6,00.0,31.2,23.8,10.3,-000.7,0008.97,0011.53,0008.66
2022-01-20 09:50:00,,0832.3,4.99,0.00,22.1,21.5,00.0,31.1,23.8,10.3,-000.6,0008.94,0011.37,0008.66
2022-01-20 09:51:00,,0832.3,5.01,0.00,22.1,21.4,00.0,31.1,23.7,10.3,-000.5,0008.95,0011.06,0008.66
2022-01-20 09:52:00,,0832.3,4.99,0.00,22.0,21.4,00.0,31.1,23.7,10.3,-000.3,0008.93,0010.39,0008.65
2022-01-20 09:53:00,,0832.3,5.01,0.00,22.0,21.3,00.0,31.1,23.7,10.3,-000.4,0008.92,0010.35,0008.64
2022-01-20 09:54:00,,0832.3,5.00,0.00,22.0,21.4,00.0,31.1,23.6,10.4,-000.6,0008.92,0010.35,0008.64
2022-01-20 09:55:00,,0832.3,5.00,0.00,22.1,21.9,00.0,31.1,23.8,10.3,-001.0,0008.92,0010.34,0008.63
2022-01-20 09:56:00,,0832.3,5.00,0.00,22.2,22.7,00.0,31.1,24.0,10.3,-001.1,0008.96,0010.40,0008.66
2022-01-20 09:57:00,,0832.2,4.99,0.00,22.3,23.2,00.0,31.2,24.3,10.2,-001.0,0009.01,0010.45,0008.70
2022-01-20 09:58:00,,0832.3,5.01,0.00,22.4,23.0,00.0,31.2,24.3,10.1,-001.3,0009.05,0010.51,0008.73
2022-01-20 09:59:00,,0832.2,5.00,0.00,22.4,22.8,00.0,31.2,24.3,10.1,-001.1,0009.06,0010.49,0008.74
